Regional Weather Roundup
Issued by NWS

Home | Current Version | Previous Version | Graphics & Text | Print | Product List | Glossary On
Versions: 1 2 3 4 5 6 7 8 9 10 11 12 13 14 15 16 17 18 19 20 21 22 23 24 25 26 27 28 29 30 31 32 33 34 35 36 37 38 39 40 41 42 43 44 45 46 47 48 49 50
000
ASUS43 KMKX 270321
RWRWI

WISCONSIN REGIONAL WEATHER ROUNDUP
NATIONAL WEATHER SERVICE MILWAUKEE/SULLIVAN WI
1000 PM CDT SUN MAR 26 2017

NOTE: "FAIR" INDICATES FEW OR NO CLOUDS BELOW 12,000 FEET WITH NO
SIGNIFICANT WEATHER AND/OR OBSTRUCTIONS TO VISIBILITY.

WIZ001-002-006>008-014>016-023>028-270400-
NORTHWEST WISCONSIN

CITY           SKY/WX    TMP DP  RH WIND       PRES   REMARKS
SUPERIOR ARPT  CLOUDY    33  33  99 CALM      29.96F
ASHLAND        CLOUDY    33  32  96 NE3       29.96S FOG
HAYWARD        CLOUDY    36  33  89 N7        29.93S WCI  30
SIREN          CLOUDY    35  34  96 NE6       29.94F WCI  30
CUMBERLAND     CLOUDY    34  34 100 N6        29.92S FOG     WCI  29
RICE LAKE      CLOUDY    37  36  96 CALM      29.93S
CHETEK         CLOUDY    37  37  98 NW3       29.92R FOG
LADYSMITH      CLOUDY    38  35  90 N8        29.91F WCI  32
EAU CLAIRE     CLOUDY    42  38  85 NW3       29.90S
MENOMONIE      CLOUDY    41  39  93 NW9       29.91S
NEW RICHMOND   CLOUDY    38  37  99 N6        29.93S FOG     WCI  33
OSCEOLA        CLOUDY    37  37 100 N6        29.96S WCI  33
$$

WIZ003>005-009-010-017-018-270400-
NORTH CENTRAL WISCONSIN

CITY           SKY/WX    TMP DP  RH WIND       PRES   REMARKS
MANITOWISH WTR CLOUDY    32  32 100 N5        29.89S FOG     WCI  27
ARBOR VITAE    CLOUDY    37  36  96 N5        29.87F FOG     WCI  33
WOODRUFF       CLOUDY    37  36  96 N5        29.87F FOG     WCI  33
RHINELANDER    CLOUDY    38  37  97 VRB3      29.87F
EAGLE RIVER    LGT RAIN  35  35 100 N5        29.87F WCI  31
LAND O LAKES   CLOUDY    34  34 100 N5        29.89F WCI  30
PHILLIPS       CLOUDY    34  34 100 N3        29.89S FOG
TOMAHAWK       CLOUDY    36  35  96 N3        29.88F FOG
MEDFORD        CLOUDY    37  37  97 N5        29.87F WCI  34
MERRILL        CLOUDY    37  37 100 CALM      29.88S FOG
$$

WIZ029-030-035-036-043>047-270400-
CENTRAL WISCONSIN

CITY           SKY/WX    TMP DP  RH WIND       PRES   REMARKS
WAUSAU         CLOUDY    38  38 100 CALM      29.86F
MOSINEE        DRIZZLE   37  37 100 VRB3      29.88F
MARSHFIELD     CLOUDY    38  37  97 CALM      29.86F FOG
STEVENS POINT  LGT RAIN  36  36 100 CALM      29.88F
WAUPACA        LGT RAIN  40  39  96 CALM      29.89S
WAUTOMA        LGT RAIN  39  38  96 CALM      29.89S
WISC RAPIDS    LGT RAIN  39  39 100 CALM      29.89F FOG
CAMP DOUGLAS   CLOUDY    39  39 100 CALM      29.90S FOG
$$

WIZ011>013-019>022-031-037>040-048>050-270400-
NORTHEAST WISCONSIN

CITY           SKY/WX    TMP DP  RH WIND       PRES   REMARKS
ANTIGO         RAIN      36  36 100 CALM      29.86F
SHAWANO        DRIZZLE   38  37  93 CALM      29.89S
OCONTO         CLOUDY    36  35  97 CALM      29.89S
STURGEON BAY   MIX PCPN  34  33  96 N10       29.88S FOG     WCI  26
GREEN BAY      FOG       37  37 100 CALM      29.88F VSB 3/4
MANITOWOC      LGT RAIN  38  37  97 NW9       29.88S WCI  31
APPLETON       DRIZZLE   37  37 100 N6        29.87S WCI  33
CLINTONVILLE   LGT RAIN  37  36  93 N3        29.89S
OSHKOSH        CLOUDY    39  37  92 N8        29.87S WCI  33
$$

WIZ032>034-041-042-053>061-270400-
SOUTHWEST WISCONSIN

CITY           SKY/WX    TMP DP  RH WIND       PRES   REMARKS
LA CROSSE      CLOUDY    42  41  96 NW5       29.91R
SPARTA         CLOUDY    39  39 100 CALM      29.91S FOG
VIROQUA        CLOUDY    39  39 100 W3        29.90R VSB 1/2
BOSCOBEL       CLOUDY    44  42  93 CALM      29.93R FOG
PRAIRIE DU CHI CLOUDY    43  40  91 CALM      29.92R FOG
PLATTEVILLE    CLOUDY    44  44 100 NW5       29.92R
$$

WIZ056-057-062-063-064-067-068-270400-
SOUTH CENTRAL WISCONSIN

CITY           SKY/WX    TMP DP  RH WIND       PRES   REMARKS
REEDSBURG      CLOUDY    39  39 100 NW3       29.90R FOG
BARABOO/DELLS  CLOUDY    39  38  97 CALM      29.90R FOG
LONE ROCK      CLOUDY    43  40  89 W5        29.93R
MINERAL POINT  CLOUDY    43  43 100 W3        29.91R FOG
MADISON        CLOUDY    40  39  97 CALM      29.90R
MIDDLETON      CLOUDY    42  42 100 N3        29.90S
WATERTOWN      CLOUDY    41  41 100 NW6       29.88R
MONROE         FOG       43  43 100 W6        29.90R VSB 1/2
JANESVILLE     CLOUDY    46  46 100 NW6       29.89R FOG
$$

WIZ051-052-058>065-066-070>072-270400-
SOUTHEAST WISCONSIN

CITY           SKY/WX    TMP DP  RH WIND       PRES   REMARKS
MILWAUKEE      LGT RAIN  42  39  89 CALM      29.87S FOG
WAUKESHA       CLOUDY    43  43 100 CALM      29.87S FOG
MILWAUKEE/TIMM DRIZZLE   43  39  87 CALM      29.87F
RACINE         CLOUDY    42  40  92 N5        29.88S
KENOSHA        CLOUDY    47  45  93 CALM      29.87R FOG
FOND DU LAC    LGT RAIN  39  37  92 N5        29.87F FOG
SHEBOYGAN      LGT RAIN  41  39  93 N3        29.86S
WEST BEND      DRIZZLE   41  41 100 CALM      29.86S
JUNEAU         DRIZZLE   39  39  99 NW3       29.89R
$$

LSZ147-162-270400-
LAKE SUPERIOR

STATION/POSITION TIME  TEMP    WIND        PRES    WAVE
                       AIR SEA DIR/SP/G            HT/PER
                 (UTC) (F)     (DEG/KT/KT) (MB)    (FT/S)
DEVILS ISLAND    0300   33      30/  2/  2 1015.2F
PORT WING        0230   34      40/  4/  5 1014.9S
SAXON HARBOR     0230   33     320/  4/  4 1013.9F
$$

LMZ867-665-643>646-270400-
LAKE MICHIGAN

STATION/POSITION TIME  TEMP    WIND        PRES    WAVE
                       AIR SEA DIR/SP/G            HT/PER
                 (UTC) (F)     (DEG/KT/KT) (MB)    (FT/S)
CHAMBERS ISLAND  0240   33     350/  6/  7 1011.9S
NORTHPORT PIER   0240   33     330/  9/ 10 1011.9S
KEWAUNEE LAKESHO 0254   36     330/  7/ 11 1011.2R
SHEBOYGAN LAKESH 0300   41     330/  5/  5 1011.6S
PORT WASHINGTON  0230   42     330/  1/  3 1012.2S
MILWAUKEE LAKESH 0300   40      20/  4/  4   N/A
KENOSHA   LAKESH 0300   41     190/  3/  4 1011.5
$$

TC  - TEMPERATURE IN CELSIUS
VSB - VISIBILITY IN STATUTE MILES
WCI - WIND CHILL INDEX
HX  - HEAT INDEX





USA.gov is the U.S. government's official web portal to all federal, state and local government web resources and services.